Miscellaneous Local Product
Issued by NWS Hastings, NE

Home | Current Version | Previous Version | Graphics & Text | Print | Product List | Glossary On
Versions: 1 2 3 4 5 6 7 8 9 10 11 12 13 14 15 16 17 18 19 20 21 22 23 24 25 26 27 28 29 30 31 32 33 34 35 36 37 38 39 40 41 42 43 44 45 46 47 48 49 50
000
AXUS43 KGID 281902
MISGRI

GID CWA HOURLY WEATHER ROUNDUP
NATIONAL WEATHER SERVICE HASTINGS NE
200 PM CDT SAT MAY 28 2016

NOTE: "FAIR" INDICATES FEW OR NO CLOUDS BELOW 12,000 FEET WITH NO
SIGNIFICANT WEATHER AND/OR OBSTRUCTIONS TO VISIBILITY.

...SOUTH CENTRAL NEBRASKA...

CITY           SKY/WX    TMP DP  RH WIND       PRES   REMARKS
GRAND ISLAND   PTSUNNY   69  54  58 NW20G25   29.87S
HASTINGS       MOSUNNY   72  51  47 NW20G26   29.88S
KEARNEY        MOSUNNY   72  52  49 NW15      29.90F
ORD            MOSUNNY   70  52  52 NW17G26   29.86S
YORK           MOSUNNY   70  57  64 NW15      29.85S
AURORA         PTSUNNY   70  56  61 NW10      29.86S
LEXINGTON      PTSUNNY   70  56  61 W7        29.92S
HOLDREGE       MOSUNNY   70  53  54 W12       29.91S
HEBRON         PTSUNNY   71  56  60 W16       29.88S

...NEBRASKA PANHANDLE...

CITY           SKY/WX    TMP DP  RH WIND       PRES   REMARKS
CHADRON        MOSUNNY   70  43  37 CALM      29.92F
ALLIANCE       MOSUNNY   69  45  41 VRB5      29.94F
SCOTTSBLUFF    SUNNY     73  44  35 W9        29.95F
SIDNEY         SUNNY     70  46  42 W8        29.99F

...WESTERN AND NORTH CENTRAL NEBRASKA...

CITY           SKY/WX    TMP DP  RH WIND       PRES   REMARKS
VALENTINE      MOSUNNY   70  48  45 NW8       29.89F
AINSWORTH      PTSUNNY   69  52  54 NW10G16   29.89F
ONEILL         CLOUDY    63  58  82 W6        29.85F
BROKEN BOW     MOSUNNY   70  52  52 NW15      29.90S
IMPERIAL       MOSUNNY   70  50  49 W14G21    29.97S
NORTH PLATTE   PTSUNNY   68  51  54 W7        29.93S
MCCOOK         MOSUNNY   73  51  46 W7        29.94F

...EASTERN NEBRASKA...

CITY           SKY/WX    TMP DP  RH WIND       PRES   REMARKS
NORFOLK        CLOUDY    65  56  72 NW20      29.80R
SO SIOUX CITY  PTSUNNY   74  61  63 S8        29.73S
TEKAMAH        PTSUNNY   69  58  67 SW22G29   29.75F
COLUMBUS       CLOUDY    66  54  63 NW18G24   29.84S
ALBION         CLOUDY    65  58  77 NW15      29.86R
OMAHA EPPLEY   PTSUNNY   71  56  58 SW17G26   29.79R
OFFUTT AFB     LGT RAIN  70  56  61 SW12G22   29.80R
MILLARD        PTSUNNY   70  56  61 W16G23    29.80F
LINCOLN        CLOUDY    71  56  58 W14G24    29.83S
NEBRASKA CITY  MOSUNNY   71  58  65 SW16      29.83S
BEATRICE       MOSUNNY   71  58  62 W18       29.86S
FALLS CITY     MOSUNNY   72  60  66 W15G23    29.85R

...NORTHERN KANSAS...

CITY           SKY/WX    TMP DP  RH WIND       PRES   REMARKS
GOODLAND       MOSUNNY   69  46  43 W10G16    29.99F
HILL CITY      SUNNY     76  51  41 NW10      29.95S
NORTON         PTCLDY    73  48  40 W9        29.94S
PHILLIPSBURG   MOSUNNY   73  54  49 W12       29.92F
SMITH CENTER   MOSUNNY   72  55  56 W10G16    29.92S
BELOIT         MOSUNNY   72  57  60 W14       29.91R
HAYS           MOSUNNY   72  52  49 W12       29.95S
RUSSELL        SUNNY     73  56  54 MISG      29.93S
CONCORDIA      MOSUNNY   73  57  57 W13       29.90S
SALINA         MOSUNNY   75  59  57 W8        29.92R
TOPEKA         MOSUNNY   75  60  59 SW13      29.89R



USA.gov is the U.S. government's official web portal to all federal, state and local government web resources and services.